Regional Weather Roundup
Issued by NWS

Home | Current Version | Previous Version | Text Only | Print | Product List | Glossary On
Versions: 1 2 3 4 5 6 7 8 9 10 11 12 13 14 15 16 17 18 19 20 21 22 23 24 25 26 27 28 29 30 31 32 33 34 35 36 37 38 39 40 41 42 43 44 45 46 47 48 49 50
000
ASUS43 KOAX 251102
RWRNE

WEATHER ROUNDUP FOR NEBRASKA
NATIONAL WEATHER SERVICE OMAHA NE
500 AM CST SUN JAN 25 2015

NOTES: SATELLITE DATA IS BEING USED TO AUGMENT CLOUD COVER ABOVE
       12000 FEET.
       "FAIR" INDICATES FEW OR NO CLOUDS BELOW 12,000 FEET WITH NO
       SIGNIFICANT WEATHER AND/OR OBSTRUCTIONS TO VISIBILITY.

  * THESE STATIONS DO NOT REPORT WEATHER SUCH AS RAIN...SNOW OR FOG.

NEZ001>004-019>022-054>056-251200-
NEBRASKA PANHANDLE

CITY           SKY/WX    TMP DP  RH WIND       PRES   REMARKS
SCOTTSBLUFF    CLEAR     38  26  62 NW20G28   30.09S WCI  28
ALLIANCE       CLEAR     32  24  72 NW13      30.05S WCI  22
CHADRON        CLEAR     31  25  78 W14       30.07S WCI  21
SIDNEY         CLOUDY    35  25  66 NW13      30.09F WCI  26
$$

NEZ057>060-069>072-079>082-251200-
SOUTHWEST NEBRASKA

CITY           SKY/WX    TMP DP  RH WIND       PRES   REMARKS
NORTH PLATTE   CLEAR     33  27  78 NW16      29.98R WCI  23
IMPERIAL       CLEAR     39  22  50 NW22      30.03R WCI  29
LEXINGTON      CLOUDY    40  30  68 NW24G32   29.95R WCI  29
MCCOOK         CLEAR     37  27  67 NW17      29.99R WCI  27
$$

NEZ005>010-023>029-035>040-094-251200-
NORTH CENTRAL NEBRASKA

CITY           SKY/WX    TMP DP  RH WIND       PRES   REMARKS
VALENTINE      PTCLDY    36  29  75 NW17      29.96R WCI  26
AINSWORTH      PTCLDY    36  29  77 NW21G30   29.94R WCI  24
BROKEN BOW     MOCLDY    39  29  67 NW35G43   29.89R WCI  26
ORD            CLOUDY    39  31  72 NW26G41   29.86R WCI  28
$$

NEZ041-046>049-061>064-073>077-083>087-251200-
SOUTH CENTRAL NEBRASKA

CITY           SKY/WX    TMP DP  RH WIND       PRES   REMARKS
GRAND ISLAND   CLOUDY    39  34  82 N24G33    29.86R WCI  28
AURORA         CLOUDY    38  33  79 N23       29.83R WCI  28
HASTINGS       CLOUDY    40  33  76 NW24G39   29.85R WCI  29
KEARNEY *      CLOUDY    41  28  60 NW18G26   29.89R
$$

NEZ011>018-030>034-042>045-251200-
NORTHEAST NEBRASKA

CITY           SKY/WX    TMP DP  RH WIND       PRES   REMARKS
NORFOLK        CLOUDY    34  31  88 NW22G28   29.81R WCI  22
ALBION         RAIN      35  32  89 N17G24    29.84R WCI  24
BLAIR          LGT RAIN  35  32  89 NW25      29.71R WCI  22
COLUMBUS *     CLOUDY    34  27  75 NW17G26   29.82R WCI  23
FREMONT        CLOUDY    36  32  86 NW23G31   29.76R WCI  24
TEKAMAH        LGT RAIN  35  32  88 NW22      29.74R WCI  23
$$

NEZ050>053-065>068-078-088>093-251200-
SOUTHEAST NEBRASKA

CITY           SKY/WX    TMP DP  RH WIND       PRES   REMARKS
LINCOLN        CLOUDY    37  31  78 NW25G36   29.77R WCI  25
OMAHA EPPLEY   LGT RAIN  35  32  88 NW23G32   29.71R WCI  23
FALLS CITY     CLOUDY    39  33  79 NW32G40   29.67R WCI  27
$$

NEZ044-045-051>053-067-251200-
OMAHA AREA

CITY           SKY/WX    TMP DP  RH WIND       PRES   REMARKS
OMAHA EPPLEY   LGT RAIN  35  32  88 NW23G32   29.71R WCI  23
BLAIR          LGT RAIN  35  32  89 NW25      29.71R WCI  22
FREMONT        CLOUDY    36  32  86 NW23G31   29.76R WCI  24
OFFUTT AFB     LGT RAIN  36  32  87 NW20G31   29.70R WCI  25
$$


USA.gov is the U.S. government's official web portal to all federal, state and local government web resources and services.